Terug naar catalogus

STARLINK-32252

ActiefCommunicatieVLEO
NORAD 60442·PAYLOAD·🇺🇸 United States

Gelanceerd Aug 12, 2024 vanaf Cape Canaveral Space Force Station

Loading…

Volgende Passages (komende 24 uur)

TLE

VersSource: CelesTrak SupGP

Epoch: Sep 14, 2026, 22:47 UTC

1 60442C 24144T   26257.94979167  .00027181  00000+0  80331-3 0  2578
2 60442  53.1577  53.6557 0001168  78.5580  60.6713 15.34368061    17

Volg STARLINK-32252 in realtime met AllMySat

Download on the App Store